Location: Drocourt
(49.0571°N, 1.7669°E)
Time: 09:17:00
(UTC+00:00)

CZ-4B DEB - Pass Details

Date: 09 February 2023
Orbit: 839 x 859 km, 99.1° (Epoch: 23 March)

Event Time Altitude Azimuth Distance (km) Brightness Sun altitude
Rises 18:14:37 0° 165° (SSE) 3,382 7.3 -12.2°
Reaches altitude 10° 18:16:58 10° 167° (SSE) 2,453 6.6 -12.6°
Maximum altitude 18:22:25 81° 254° (WSW) 860 4.3 -13.4°
Drops below altitude 10° 18:27:56 10° 343° (NNW) 2,482 6.8 -14.3°
Sets 18:30:19 0° 345° (NNW) 3,424 7.5 -14.7°
